Regional Weather Roundup
Issued by NWS

Home | Current Version | Previous Version | Text Only | Print | Product List | Glossary On
Versions: 1 2 3 4 5 6 7 8 9 10 11 12 13 14 15 16 17 18 19 20 21 22 23 24 25 26 27 28 29 30 31 32 33 34 35 36 37 38 39 40 41 42 43 44 45 46 47 48 49 50
000
ASCA42 TJSJ 312011
RWRPR
PUERTO RICO/U.S. VIRGIN ISLANDS HOURLY WEATHER ROUNDUP
NATIONAL WEATHER SERVICE SAN JUAN PR
400 PM AST THU JUL 31 2014

PRZ001-004-312100-
PUERTO RICO

CITY           SKY/WX    TMP DP  RH WIND       PRES   REMARKS
SAN JUAN LMM   PTSUNNY   88  73  62 SE10      29.96R HX  96
PONCE          MOSUNNY   90  77  66 SE12      29.94S HX 102
MAYAGUEZ       PTSUNNY   88  73  62 SW13      29.96  HX  96
CEIBA          PTSUNNY   84  73  70 S10       29.99S HX  91
$$

PRZ006-007-312100-
U.S. VIRGIN ISLANDS

CITY           SKY/WX    TMP DP  RH WIND       PRES   REMARKS
CHARLOTTE AMA  MOSUNNY   88  77  70 SE12      29.97S HX 100
CHRISTIANSTED  MOSUNNY   88  75  66 E14       29.98S HX  97
$$

HOURLY WEATHER ROUNDUP FOR THE NEWS MEDIA

CITY           SKY/WX    TMP DP  RH WIND       PRES   REMARKS
MIAMI          PTSUNNY   88  74  63 SE10G20   29.97S HX  96
ORLANDO        PTSUNNY   92  73  53 SW10      29.94F HX 100
NEW YORK       MOSUNNY   80  61  52 S15       30.11S
NEWARK         MOSUNNY   84  59  42 SW8G18    30.07F
CHICAGO        MOSUNNY   84  53  34 W17G25    30.02F
HARTFORD       MOSUNNY   77  64  64 S13       30.12R
BOSTON         PTSUNNY   80  59  48 SW15      30.07S
DALLAS         CLOUDY    77  67  71 NW14G24   29.99R
PHILADELPHIA   MOSUNNY   86  60  41 W14       30.09R



USA.gov is the U.S. government's official web portal to all federal, state and local government web resources and services.